Riverside, CA

6:10 AM PDT on July 26, 2016 (GMT -0700)
Riverside Municipal

Weather History for KRAL - February, 2014

Change the Weather History Date:

Wednesday, February 12, 2014

  Actual Average Record
Temperature  
Mean Temperature 66 °F 55 °F  
Max Temperature 84 °F 67 °F 88 °F (1971)
Min Temperature 48 °F 44 °F 26 °F (1929)
Degree Days  
Heating Degree Days 0 10  
Month to date heating degree days 106 120  
Since 1 July heating degree days 625 965  
Cooling Degree Days 1 0  
Month to date cooling degree days 1 0  
Year to date cooling degree days 20 6  
Growing Degree Days 15 (Base 50)    
Moisture  
Dew Point 35 °F    
Average Humidity 42    
Maximum Humidity 74    
Minimum Humidity 10    
Precipitation  
Precipitation 0.00 in 0.12 in 1.25 in (1992)
Month to date precipitation 0.05 0.99  
Year to date precipitation 0.05 3.93  
Since 1 July precipitation 1.20  
Snow  
Snow 0.00 in - - ()
Month to date snowfall 0.0  
Year to date snowfall 0.0  
Snow Depth 0.00 in    
Sea Level Pressure  
Sea Level Pressure 30.06 in    
Wind  
Wind Speed 4 mph (NE)    
Max Wind Speed 12 mph    
Max Gust Speed 16 mph    
Visibility 10 miles    
Events      
T = Trace of Precipitation, MM = Missing Value Source: NWS Daily Summary

Daily Weather History Graph

Daily Weather History Graph

Search for Another Location

Airport or City:

Trip Planner

Search our weather history database for the weather conditions in past years. The results will help you decide how hot, cold, wet, or windy it might be!

Date:

Astronomy

Feb. 12, 2014 Rise Set
Actual Time 6:37 AM PST 5:31 PM PST
Civil Twilight 6:11 AM PST 5:56 PM PST
Nautical Twilight 5:42 AM PST 6:26 PM PST
Astronomical Twilight 5:13 AM PST 6:55 PM PST
Moon 3:50 PM PST (2/12) 4:54 AM PST (2/12)
Length of Visible Light 11h 45m
Length of Day
10h 53m
Waxing Gibbous, 96% of the Moon is Illuminated
Feb 12
Waxing Gibbous
Feb 14
Full
Feb 22
Last Quarter
Mar 1
New
Mar 8
First Quarter

Hourly Weather History & Observations

Time (PST) Temp. Dew Point Humidity Pressure Visibility Wind Dir Wind Speed Gust Speed Precip Events Conditions
12:53 AM 54.0 °F 43.0 °F 66% 30.06 in 10.0 mi ENE 3.5 mph - N/A   Clear
1:53 AM 54.0 °F 39.9 °F 59% 30.07 in 10.0 mi NE 6.9 mph - N/A   Clear
2:53 AM 50.0 °F 42.1 °F 74% 30.08 in 10.0 mi Calm Calm - N/A   Clear
3:53 AM 50.0 °F 41.0 °F 71% 30.09 in 10.0 mi East 4.6 mph - N/A   Clear
4:53 AM 50.0 °F 39.9 °F 68% 30.09 in 10.0 mi ENE 5.8 mph - N/A   Clear
5:53 AM 48.9 °F 37.9 °F 66% 30.10 in 10.0 mi ENE 5.8 mph - N/A   Clear
6:53 AM 50.0 °F 36.0 °F 59% 30.11 in 10.0 mi NE 4.6 mph - N/A   Clear
7:53 AM 55.9 °F 35.1 °F 45% 30.13 in 10.0 mi ENE 3.5 mph - N/A   Clear
8:53 AM 63.0 °F 39.0 °F 41% 30.12 in 10.0 mi NNE 4.6 mph - N/A   Clear
9:53 AM 70.0 °F 35.1 °F 28% 30.11 in 10.0 mi NE 4.6 mph - N/A   Clear
10:53 AM 75.9 °F 28.0 °F 17% 30.10 in 10.0 mi Variable 3.5 mph - N/A   Clear
11:53 AM 79.0 °F 21.0 °F 12% 30.07 in 10.0 mi Calm Calm - N/A   Clear
12:53 PM 81.0 °F 23.0 °F 12% 30.04 in 10.0 mi West 4.6 mph - N/A   Clear
1:53 PM 82.0 °F 21.9 °F 11% 30.01 in 10.0 mi Variable 3.5 mph - N/A   Mostly Cloudy
2:53 PM 82.9 °F 28.9 °F 14% 30.01 in 10.0 mi West 10.4 mph - N/A   Mostly Cloudy
3:53 PM 81.0 °F 32.0 °F 17% 30.01 in 10.0 mi West 8.1 mph - N/A   Clear
4:53 PM 79.0 °F 32.0 °F 18% 30.00 in 10.0 mi West 5.8 mph - N/A   Clear
5:53 PM 75.0 °F 35.1 °F 23% 30.01 in 10.0 mi West 4.6 mph - N/A   Clear
6:53 PM 71.1 °F 36.0 °F 28% 30.03 in 10.0 mi West 3.5 mph - N/A   Clear
7:53 PM 66.0 °F 37.9 °F 36% 30.04 in 10.0 mi Calm Calm - N/A   Clear
8:53 PM 64.0 °F 39.0 °F 40% 30.04 in 10.0 mi ESE 3.5 mph - N/A   Clear
9:53 PM 61.0 °F 39.9 °F 46% 30.05 in 10.0 mi East 4.6 mph - N/A   Clear
10:53 PM 57.9 °F 41.0 °F 53% 30.05 in 10.0 mi East 3.5 mph - N/A   Clear
11:53 PM 57.9 °F 41.0 °F 53% 30.05 in 10.0 mi East 4.6 mph - N/A   Clear